Regional Weather Roundup
Issued by NWS Cleveland, OH

Home | Current Version | Previous Version | Text Only | Print | Product List | Glossary Off
Versions: 1 2 3 4 5 6 7 8 9 10 11 12 13 14 15 16 17 18 19 20 21 22 23 24 25 26 27 28 29 30 31 32 33 34 35 36 37 38 39 40 41 42 43 44 45 46 47 48 49 50

000
ASUS41 KCLE 282100
RWRCLE
OHIO REGIONAL WEATHER ROUNDUP
NATIONAL WEATHER SERVICE WILMINGTON, OH
400 PM EST SAT FEB 28 2015

NOTE: "FAIR" INDICATES FEW OR NO CLOUDS BELOW 12,000 FEET WITH NO
SIGNIFICANT WEATHER AND/OR OBSTRUCTIONS TO VISIBILITY.

OHZ001>008-015>018-024>027-034-035-043-044-282200-
   NORTHWEST OHIO

CITY           SKY/WX    TMP DP  RH WIND       PRES   REMARKS
DEFIANCE       SUNNY     20   2  45 E9        30.65F WCI   9
FINDLAY        CLOUDY    20  -1  40 E7        30.63F WCI  11
TOLEDO EXPRESS SUNNY     19   0  43 SE6       30.66F WCI  11
TOLEDO EXEC    SUNNY     19   1  45 SE6       30.68F WCI  11
LIMA           PTSUNNY   22   4  46 E8        30.61F WCI  12
$$

OHZ009>014-019>023-028>033-038-089-282200-
   NORTHEAST OHIO

CITY           SKY/WX    TMP DP  RH WIND       PRES   REMARKS
CLE-HOPKINS    SUNNY     22   6  50 N7        30.69F WCI  13
CLE-LAKEFRONT  SUNNY     19   6  57 NE9       30.68F WCI   8
CUY CO. ARPT   MOSUNNY   21   9  58 NE12      30.67F WCI   9
LORAIN-ELYRIA  SUNNY     21  -3  35 S7        30.67F WCI  12
ASHTABULA      SUNNY     22  -4  32 CALM      30.68F
AKRON-CANTON   MOSUNNY   22  -1  36 VRB6      30.64F WCI  14
WOOSTER        NOT AVBL
MANSFIELD      CLOUDY    21   2  43 E8        30.61F WCI  11
YOUNGSTOWN     MOSUNNY   22  -6  29 E5        30.64F WCI  16
$$

OHZ042-051>053-060>062-070>072-077>081-282200-
  SOUTHWEST OHIO

CITY           SKY/WX    TMP DP  RH WIND       PRES   REMARKS
CINC-COVINGTON PTSUNNY   28   8  43 E9        30.56F WCI  19
CINC-LUNKEN    CLOUDY    28   8  43 NE7       30.61F WCI  21
HAMILTON       PTSUNNY   27   8  44 E8        30.61F WCI  19
DAYTON         NOT AVBL
WRIGHT-PAT AFB NOT AVBL
DAYTON GENERAL PTSUNNY   24   6  46 E8        30.58F WCI  15
WILMINGTON     CLOUDY    21   8  57 NE9       30.58F WCI  11
$$

OHZ036-037-039>041-045>050-054>059-063>069-073>076-082>088-282200-
  CENTRAL AND SOUTHEAST OHIO

CITY           SKY/WX    TMP DP  RH WIND       PRES   REMARKS
COLUMBUS       MOSUNNY   25   2  37 E7        30.63F WCI  17
OSU AIRPORT    SUNNY     24  -2  32 E7        30.61F WCI  16
BOLTON FIELD   SUNNY     25   3  39 CALM      30.62F
RICKENBACK AFB NOT AVBL
NEWARK         SUNNY     28   1  31 E6        30.62F WCI  22
MARION         CLOUDY    21  -1  38 SE5       30.62F WCI  15
LANCASTER      MOSUNNY   27   9  46 NE8       30.62F WCI  19
ZANESVILLE     MOSUNNY   26   2  35 E5        30.63F WCI  20
NEW PHILLY     CLOUDY    27   0  31 VRB5      30.66S WCI  22
$$


USA.gov is the U.S. government's official web portal to all federal, state and local government web resources and services.